Regional Weather Roundup
Issued by NWS Newport/Morehead, NC

Current Version | Previous Version | Text Only | Print | Product List | Glossary On
Versions: 1 2 3 4 5 6 7 8 9 10 11 12 13 14 15 16 17 18 19 20 21 22 23 24 25 26 27 28 29 30 31 32 33 34 35 36 37 38 39 40 41 42 43 44 45 46 47 48 49 50
000 ASUS42 KMHX 042125 RWRMHX WEATHER ROUNDUP FOR EASTERN NORTH CAROLINA NATIONAL WEATHER SERVICE NEWPORT/MOREHEAD CITY NC 500 PM EDT WED MAY 04 2016 NOTE: "FAIR" INDICATES FEW OR NO CLOUDS BELOW 12,000 FEET WITH NO SIGNIFICANT WEATHER AND/OR OBSTRUCTIONS TO VISIBILITY NCZ015>017-031-032-045>047-102-103-042200- NORTH COAST CITY SKY/WX TMP DP RH WIND PRES REMARKS EDENTON PTSUNNY 72 62 70 N3 29.60R ELIZABETH CITY PTSUNNY 71 59 65 N9 29.58F KITTY HAWK CLOUDY 63 56 77 NE7 29.61R MANTEO PTSUNNY 64 60 89 NE10 29.61R $$ NCZ045>047-081-094-103-104-042200- CENTRAL COAST CITY SKY/WX TMP DP RH WIND PRES REMARKS FRISCO MOSUNNY 70 64 81 SW5 29.58F SWANQUARTER NOT AVBL $$ NCZ095-097-098-100-101-042200- SOUTHERN COAST CITY SKY/WX TMP DP RH WIND PRES REMARKS BEAUFORT SUNNY 73 66 78 SW13 29.57R CEDAR ISLAND NOT AVBL JACKSONVILLE PTSUNNY 75 62 64 NW6 29.56R PINEY ISLAND CLOUDY N/A N/A N/A CALM 29.57R WILMINGTON MOSUNNY 80 59 48 W12 29.56S $$ NCZ011>013-027>030-043-044-078>080-089-090>093-098-042200- COASTAL PLAIN CITY SKY/WX TMP DP RH WIND PRES REMARKS AHOSKIE SUNNY 69 58 68 CALM 29.58F CLINTON MOSUNNY 75 55 49 W5 29.61R ELIZABETHTOWN MOSUNNY 77 50 38 NW9 29.59S GOLDSBORO MOSUNNY 76 56 49 VRB7 29.57S GREENVILLE PTSUNNY 73 59 60 W3 29.62R HAVELOCK CLOUDY 70 67 90 CALM 29.58R KENANSVILLE NOT AVBL KINSTON MOSUNNY 75 57 53 NW5 29.59R NEW BERN PTSUNNY 77 61 57 NW8 29.57S RICHLANDS SUNNY 77 61 57 NW9 29.57R ROCKY MOUNT PTSUNNY 74 54 49 W5 29.58F WASHINGTON SUNNY 75 58 54 W7 29.57R WHITEVILLE NOT AVBL $$ AMZ130-135-150-152-154-156-158-170-250-252-270-ANZ085-086-088-633-658-670-042200- MARINE OBSERVATIONS STATION/POSITION TIME TEMP WIND PRES WAVE SWELL AIR SEA DIR/SP/G HT/PER HT/PER (UTC) (F) (DEG/KT/KT) (MB) (FT/S) (FT/S) CHESAPEAKE LIGHT 2100 54 40/ 14/ 14 1003.5 64 E VA BEACH 2050 55 56 360/ 8/ 10 1002.0 3/ 6 3/ 6 DUCK 2100 58 30/ 14/ 16 1001.7 2 E DUCK 2011 60 N/A 3/ 6 OREGON INLET 2100 60 65 360/ 8/ 12 1002.1 13E OREGON INLT 2100 63 N/A 3/ 6 3/ 6 HATTERAS CG 2100 70 70 170/ 5/ 6 1001.5 DIAMOND BUOY 2050 71 71 240/ 4/ 4 1001.8 3/ 8 3/ 8 CAPE LOOKOUT 2100 72 220/ 10/ 14 1000.9 BEAUFORT LAB 2100 72 68 210/ 9/ 13 1000.4 30 SE NEW RVR IN 2025 73 N/A 5/ 7 27 SE WRIGHTSVLE 2008 72 72 230/ 16/ 19 1001.1 5 SE WRIGHTSVLE 2108 73 70 220/ 17/ 23 1001.8 225 S CAPE HAT 2050 74 74 180/ 23/ 27 1003.7 5/ 7 2/ 9 41 SE CHARLESTON 2050 73 75 230/ 16/ 17 1002.7 3/ 4 2/ 7 $$

USA.gov is the U.S. government's official web portal to all federal, state and local government web resources and services.